Location: Br�znic
(45.9167°N, 22.6500°E)
Time: 08:04:35
(UTC+00:00)

OBJECT-B - Pass Details

Date: 03 March 2021
Orbit: 414 x 427 km, 97.0° (Epoch: 09 April)

Event Time Altitude Azimuth Distance (km) Brightness Sun altitude
Exits shadow 18:04:51 31° 22° (NNE) 765 1.9 -19.2°
Drops below altitude 10° 18:06:51 10° 360° (N) 1,514 3.7 -19.5°
Sets 18:08:54 0° 354° (N) 2,381 4.8 -19.9°
